{"data":{"norad_id":48795,"epoch":"2026-09-20T03:59:49.823232Z","epoch_age_seconds":50694,"freshness":"FRESH","line1":"1 48795U 21045AE  26263.16654888  .00000226  00000+0  56678-3 0  9994","line2":"2 48795  87.8988 240.2934 0001830  73.8887 286.2445 13.15547482256789","mean_motion":13.15547482,"eccentricity":0.000183,"inclination_deg":87.8988,"raan_deg":240.2934,"arg_perigee_deg":73.8887,"mean_anomaly_deg":286.2445,"bstar":0.00056678,"rev_number":25678,"period_min":109.46013121555,"perigee_km":1200.387745983,"apogee_km":1203.1619937273,"semimajor_km":7579.9118698552,"source":"CELESTRAK","updated_at":"2026-09-20T09:00:44.621116Z"}}